{"data":{"norad_id":62970,"epoch":"2026-09-21T20:44:39.212736Z","epoch_age_seconds":47705,"freshness":"FRESH","line1":"1 62970U 25029Y   26264.86434274  .00003797  00000+0  12354-3 0  9993","line2":"2 62970  53.1585  39.0542 0000828  76.0322 284.0773 15.34377928 91385","mean_motion":15.34377928,"eccentricity":8.28e-5,"inclination_deg":53.1585,"raan_deg":39.0542,"arg_perigee_deg":76.0322,"mean_anomaly_deg":284.0773,"bstar":0.00012354,"rev_number":9138,"period_min":93.849108079714,"perigee_km":462.20241662512,"apogee_km":463.33527063283,"semimajor_km":6840.905843629,"source":"CELESTRAK","updated_at":"2026-09-22T09:00:49.715907Z"}}